Location: Goudex
(43.3760°N, 0.9543°E)
Time: 03:47:00
(UTC+00:00)

Helios 1A Rocket - Pass Details

Date: 20 November 2019
Orbit: 563 x 588 km, 98.3° (Epoch: 10 December)

Event Time Altitude Azimuth Distance (km) Brightness Sun altitude
Rises 05:32:23 0° 13° (NNE) 2,802 6.4 -15.0°
Reaches altitude 10° 05:34:33 10° 14° (NNE) 1,894 5.6 -14.6°
Maximum altitude 05:38:40 87° 104° (ESE) 579 2.9 -13.9°
Drops below altitude 10° 05:42:43 10° 194° (SSW) 1,864 5.5 -13.2°
Sets 05:44:50 0° 194° (SSW) 2,753 6.4 -12.8°
